DELTA 1 DEB, 42643

Orbit data source: Space-Track

DELTA 1 DEB, 42643 is space debris in SSO originally from a launch on Thu, 12 Jun 1975 UTC launched from the Air Force Western Test Range (AFWTR). Debris objects in space refer to the collection of defunct objects orbiting the Earth. Examples of debris include non-operational satellites, rocket bodies, and fragments generated from explosions, collisions, or faulty payload assembly.

Loading next visibility...
Identifier
42643, 1975-052MC
Orbit
SSO
Country
Flag of USUS
Related business
Manufacturer
Unknown
Mission
Spacecraft
Bus & Motor
Unknown
Mass
Unknown
Launch date (UTC)
1975-06-12 (51 years ago)
Launch vehicle
Unknown
Launch site
Air Force Western Test Range (AFWTR)
Object type
Payload
Rocket body
Debris
Shape & HBR
Unknown shape, 0.1 m
Radar Cross Section
Small (<0.1 m²)

Expand to show TLE details & history
Last TLE update: 3 days ago

TLE from 3 days ago
0 DELTA 1 DEB
1 42643U 75052MC  26170.29773817  .00000063  00000-0  32615-3 0  9997
2 42643  99.6504   4.9427 0294427 311.8993  45.7333 12.88754089 27963
Epoch: 2026-06-19T07:08Z
TLE epoch observation values (Epoch: 2026-06-19T07:08:44.577Z)
Latitude
0.00001°
Longitude
-9.77177°
Altitude
1,154.75 km
Speed
7.348 km/s
True Right ascension
00h 19m 46s
True Declination
0° 00' 00"
Sunlit
Object was in daylight at epoch
Visualization orbit readout
Latitude
Unknown
Longitude
Unknown
Altitude
Unknown
Speed
Unknown
Apparent Right ascension
Unknown
Apparent Declination
Unknown
Sunlit
N/A
Visualization observer readout
Local Sidereal Time
19:09:22
Azimuth
Unknown
Elevation
Unknown
Doppler factor
Unknown
Orbital elements
Apogee altitude
1,530.029 km
Perigee altitude
1,077.672 km
Semi-major axis
7,681.987 km
Eccentricity
0.02944
Inclination
99.6504°
RAAN
4.9427°
Arg. of periapsis
311.8993°
True anomaly
48.21219°
Mean anomaly
45.7333°
Eccentric anomaly
46.96638°
Mean motion
3.22354 °/min
Orbital period
111.68 mins
BSTAR
0.00032615
Loading maneuver chart data...
Computing Atmospheric mass density...
Loading historical data...
Loading historical data...
Loading historical data...
Loading historical data...
Loading historical data...
Loading historical data...
Loading historical data...

Documentation

Showing up to 5 results
|